1500127200.16,12857,18.38,73798.5,2.37,-0.77,-0.65,0,*71
1500127201.37,12858,18.38,73798.0,2.39,-0.53,-0.41,0,*70
1500127202.58,12859,18.38,73800.5,2.39,-0.65,-0.49,0,*7C
1500127203.83,12860,18.38,73798.0,2.39,-0.93,-0.93,0,*78
1500127205.02,12861,18.38,73800.5,2.37,-0.81,-0.69,0,*71
1500127206.25,12862,18.38,73798.3,2.39,-0.27,-0.15,0,*7B
1500127207.43,12863,18.38,73800.3,2.37,-0.19,-0.07,0,*4A
1500127208.61,12864,18.38,73796.5,2.37,-0.19,0.01,0,*66
1500127209.81,12865,18.38,73800.0,2.39,-0.15,0.05,0,*61
1500127211.0,12866,18.38,73800.5,2.39,-0.03,0.05,0,*55
1500127212.2,12867,18.38,73802.0,2.39,-0.07,-0.03,0,*7B
1500127213.38,12868,18.38,73798.8,2.41,-0.11,0.09,0,*6B
1500127214.6,12869,18.38,73800.5,2.43,0.09,0.17,0,*43
1500127215.8,12870,18.38,73802.8,2.43,-0.03,0.09,0,*53
1500127216.99,12871,18.38,73802.3,2.41,0.09,0.17,0,*48
1500127218.2,12872,18.38,73800.5,2.43,-0.11,-0.03,0,*45
1500127219.42,12873,18.38,73802.8,2.43,-0.45,-0.37,0,*72
1500127220.65,12874,18.38,73796.3,2.43,-0.37,-0.27,0,*71
1500127221.88,12875,18.38,73800.3,2.43,-0.03,0.13,0,*6D
1500127223.09,12876,18.38,73800.3,2.43,0.01,0.13,0,*41
1500127224.29,12877,18.38,73802.3,2.43,-0.03,0.09,0,*54
1500127225.5,12878,18.38,73804.0,2.43,-0.11,-0.03,0,*4F
1500127226.72,12879,18.38,73802.0,2.43,-0.15,-0.11,0,*79
1500127227.97,12880,18.38,73802.8,2.43,-0.23,-0.23,0,*7B
1500127229.18,12881,18.38,73800.3,2.43,-0.49,-0.37,0,*73
1500127230.36,12882,18.38,73798.8,2.45,-0.19,0.01,0,*6B
1500127231.54,12883,18.38,73798.5,2.45,0.01,0.13,0,*4D
1500127232.78,12884,18.38,73800.3,2.47,0.13,0.21,0,*7A
1500127234.02,12885,18.38,73796.8,2.47,0.17,0.21,0,*7F
1500127235.26,12886,18.38,73798.3,2.47,0.21,0.41,0,*7F
1500127236.49,12887,18.38,73802.3,2.47,0.33,0.55,0,*78
1500127237.7,12888,18.38,73798.5,2.49,0.17,0.25,0,*78
1500127238.91,12889,18.38,73798.0,2.47,-0.73,-0.69,0,*7D
1500127240.1,12890,18.38,73796.3,2.49,-0.77,-0.69,0,*7F
1500127241.3,12891,18.38,73798.5,2.47,-0.45,-0.29,0,*75
1500127242.51,12892,18.38,73798.5,2.47,-0.41,-0.41,0,*7C
1500127243.72,12893,18.38,73796.3,2.47,-0.45,-0.41,0,*79
1500127244.93,12894,18.38,73796.5,2.47,-0.33,-0.19,0,*72
1500127246.16,12895,18.38,73796.3,2.47,-0.23,-0.11,0,*7A
1500127247.34,12896,18.38,73798.8,2.49,-0.29,-0.29,0,*76
1500127248.52,12897,18.38,73796.8,2.49,-0.65,-0.77,0,*74
1500127249.71,12898,18.38,73800.0,2.49,-0.37,-0.19,0,*74
1500127250.9,12899,18.38,73798.0,2.47,-0.07,0.05,0,*58
1500127252.1,12900,18.38,73800.3,2.47,-0.33,-0.29,0,*7D
1500127253.33,12901,18.38,73800.8,2.47,-0.41,-0.23,0,*73
1500127254.53,12902,18.38,73802.0,2.47,-0.41,-0.29,0,*7A
1500127255.75,12903,18.38,73802.3,2.47,-0.45,-0.41,0,*71
1500127256.97,12904,18.38,73798.8,2.47,-0.23,-0.07,0,*44
1500127258.18,12905,18.38,73802.8,2.47,-0.45,-0.33,0,*72
1500127259.39,12906,18.38,73802.8,2.47,-1.67,-1.79,0,*7F
1500127260.59,12907,18.38,73800.3,2.45,-2.95,-2.95,0,*73
1500127261.84,12908,18.38,73802.3,2.41,-2.51,-2.59,0,*70
1500127263.08,12909,18.38,73798.5,2.41,-1.87,-1.87,0,*79
1500127264.3,12910,18.38,73796.5,2.39,-1.29,-1.29,0,*7E
1500127265.5,12911,18.38,73798.3,2.37,-1.33,-1.29,0,*7A
1500127266.74,12912,18.38,73792.3,2.37,-1.09,-1.05,0,*7E
1500127267.92,12913,18.38,73796.0,2.37,-0.77,-0.57,0,*71
1500127269.13,12914,18.38,73798.5,2.37,-0.85,-0.81,0,*70
1500127270.36,12915,18.38,73794.5,2.37,-0.85,-0.93,0,*72
1500127271.55,12916,18.38,73796.8,2.37,-0.65,-0.53,0,*73
1500127272.74,12917,18.38,73800.5,2.37,-0.81,-0.81,0,*77
1500127273.92,12918,18.38,73796.0,2.37,-0.81,-0.65,0,*72
1500127275.11,12919,18.38,73798.0,2.37,-0.57,-0.45,0,*7A
1500127276.29,12920,18.38,73798.3,2.37,-0.11,0.01,0,*6F
1500127277.46,12921,18.38,73802.8,2.37,-0.07,0.05,0,*5D
1500127278.66,12922,18.38,73802.5,2.39,-0.19,0.05,0,*6F
1500127279.84,12923,18.38,73800.5,2.37,0.01,0.17,0,*47
1500127281.02,12924,18.38,73800.8,2.37,-0.07,0.09,0,*54
1500127282.23,12925,18.38,73802.0,2.39,-1.51,-1.79,0,*72
1500127283.46,12926,18.38,73800.8,2.37,-3.67,-3.55,0,*74
1500127284.65,12927,18.38,73798.8,2.37,-2.43,-2.35,0,*75
1500127285.87,12928,18.38,73802.8,2.37,-1.95,-1.79,0,*79
1500127287.09,12929,18.38,73800.5,2.37,-1.43,-1.33,0,*7D
1500127288.28,12930,18.38,73802.3,2.35,-1.21,-1.17,0,*75
1500127289.48,12931,18.38,73798.0,2.37,-1.21,-1.17,0,*76
1500127290.67,12932,18.38,73798.0,2.37,-0.81,-0.57,0,*7B
1500127291.85,12933,18.38,73802.8,2.37,-0.69,-0.57,0,*7C
1500127293.04,12934,18.38,73800.3,2.37,-0.81,-0.57,0,*7D
1500127294.28,12935,18.38,73802.0,2.37,-1.09,-0.85,0,*42
1500127295.46,12936,18.44,73804.5,2.37,-0.65,-0.45,0,*76
1500127296.65,12937,18.38,73802.8,2.37,-0.81,-0.57,0,*7E
1500127297.84,12938,18.38,73802.3,2.37,-0.45,-0.33,0,*7B
1500127299.06,12939,18.38,73800.5,2.39,-0.27,-0.03,0,*43
1500127300.28,12940,18.38,73802.3,2.39,0.13,0.43,0,*7E
1500127301.47,12941,18.38,73800.8,2.37,0.21,0.43,0,*70
1500127302.71,12942,18.38,73800.3,2.39,0.25,0.47,0,*7D
1500127303.92,12943,18.38,73796.0,2.39,0.43,0.67,0,*7E
1500127305.13,12944,18.38,73800.8,2.39,0.43,0.71,0,*7E
1500127306.35,12945,18.38,73800.8,2.41,0.47,0.71,0,*74
1500127307.6,12946,18.38,73798.3,2.43,0.51,0.87,0,*7B
1500127308.84,12947,18.38,73800.5,2.43,0.37,0.71,0,*73
1500127310.07,12948,18.38,73800.8,2.43,-0.11,0.13,0,*51
1500127311.3,12949,18.38,73796.3,2.43,-0.23,-0.03,0,*4D
1500127312.53,12950,18.38,73800.5,2.43,-0.03,0.17,0,*6F
1500127313.77,12951,18.38,73800.0,2.43,0.29,0.51,0,*79
1500127314.97,12952,18.38,73798.8,2.45,-0.07,0.21,0,*6A
1500127316.15,12953,18.38,73800.5,2.45,-0.53,-0.33,0,*74
1500127317.36,12954,18.38,73802.3,2.45,-0.11,0.17,0,*5E
1500127318.59,12955,18.38,73802.8,2.43,0.17,0.41,0,*71
1500127319.84,12956,18.38,73800.5,2.43,0.17,0.51,0,*73
1500127321.08,12957,18.38,73802.3,2.43,0.13,0.37,0,*76
1500127322.33,12958,18.38,73802.8,2.43,0.29,0.63,0,*71
1500127323.56,12959,18.38,73798.3,2.47,0.41,0.63,0,*7A
1500127324.8,12960,18.38,73800.0,2.47,0.33,0.63,0,*75
1500127326.04,12961,18.38,73798.0,2.47,0.33,0.55,0,*71
1500127327.27,12962,18.38,73800.3,2.47,0.33,0.63,0,*77
1500127328.5,12963,18.38,73802.3,2.47,0.29,0.67,0,*79
1500127329.73,12964,18.38,73796.3,2.47,-0.19,0.13,0,*53
1500127330.94,12965,18.38,73798.0,2.47,0.01,0.21,0,*47
1500127332.18,12966,18.38,73800.5,2.47,0.33,0.55,0,*76
1500127333.41,12967,18.38,73796.8,2.51,0.17,0.37,0,*72
1500127334.63,12968,18.38,73800.5,2.49,0.25,0.59,0,*7D
1500127335.85,12969,18.38,73800.5,2.49,0.33,0.59,0,*7B
1500127337.04,12970,18.38,73796.3,2.49,0.09,0.33,0,*46
1500127338.26,12971,18.38,73802.3,2.51,-0.19,0.17,0,*54
1500127339.47,12972,18.38,73802.8,2.51,0.17,0.43,0,*75
1500127340.68,12973,18.38,73802.0,2.49,0.33,0.67,0,*7D
1500127341.87,12974,18.38,73800.0,2.49,0.21,0.43,0,*7F
1500127343.06,12975,18.38,73800.8,2.49,0.05,0.33,0,*4F
1500127344.3,12976,18.38,73802.0,2.51,0.21,0.37,0,*77
1500127345.5,12977,18.38,73802.3,2.49,-0.27,0.09,0,*69
1500127346.71,12978,18.38,73802.0,2.49,-0.37,-0.27,0,*76
1500127347.9,12979,18.38,73802.0,2.49,0.09,0.37,0,*4B
1500127349.09,12980,18.38,73800.3,2.49,-0.07,0.17,0,*6C
1500127350.29,12981,18.38,73800.5,2.49,-0.19,0.17,0,*52
1500127351.49,12982,18.38,73800.0,2.49,-0.19,0.17,0,*51
1500127352.66,12983,18.38,73798.8,2.49,-0.07,0.09,0,*50
1500127353.84,12984,18.38,73800.3,2.49,-0.37,-0.07,0,*47
1500127355.02,12985,18.38,73802.8,2.49,-0.37,-0.03,0,*42
1500127356.19,12986,18.38,73802.0,2.49,-0.19,0.09,0,*6A
1500127357.42,12987,18.38,73802.3,2.47,-0.11,0.13,0,*56
1500127358.65,12988,18.38,73798.5,2.47,0.13,0.41,0,*71
1500127359.89,12989,18.38,73800.5,2.47,0.21,0.51,0,*70
1500127361.1,12990,18.38,73796.8,2.49,0.37,0.67,0,*74
1500127362.29,12991,18.38,73798.0,2.49,0.09,0.37,0,*4D
1500127363.53,12992,18.38,73798.3,2.51,0.33,0.55,0,*7A
1500127364.75,12993,18.38,73804.0,2.51,0.09,0.37,0,*46
1500127365.94,12994,18.38,73800.0,2.49,-0.07,0.21,0,*6C
1500127367.12,12995,18.38,73796.3,2.49,-0.37,-0.07,0,*47
1500127368.32,12996,18.38,73796.0,2.49,-0.03,0.25,0,*6E
1500127369.53,12997,18.38,73800.0,2.49,0.17,0.59,0,*7C
1500127370.72,12998,18.38,73800.0,2.49,0.43,0.83,0,*75
1500127371.95,12999,18.38,73802.8,2.51,0.37,0.67,0,*74
1500127373.17,13000,18.38,73802.0,2.51,0.21,0.43,0,*7D
1500127374.41,13001,18.38,73802.8,2.51,0.47,0.83,0,*70
1500127375.63,13002,18.38,73796.3,2.53,0.41,0.71,0,*7A
1500127376.85,13003,18.38,73796.8,2.53,0.21,0.47,0,*78
1500127378.06,13004,18.38,73798.0,2.57,0.51,0.79,0,*71
1500127379.24,13005,18.38,73798.8,2.57,0.67,1.01,0,*4B
1500127380.45,13006,18.38,73798.8,2.57,0.41,0.67,0,*7D
1500127381.67,13007,18.38,73798.3,2.53,0.25,0.47,0,*78
1500127382.89,13008,18.38,73800.5,2.53,0.41,0.75,0,*74
1500127384.07,13009,18.38,73796.0,2.57,0.67,0.97,0,*79
1500127385.28,13010,18.38,73798.8,2.53,0.41,0.67,0,*7E
1500127386.5,13011,18.38,73798.8,2.53,0.21,0.51,0,*7C
1500127387.69,13012,18.38,73802.0,2.57,0.29,0.43,0,*70
1500127388.87,13013,18.38,73802.8,2.57,0.05,0.41,0,*4D
1500127390.09,13014,18.38,73798.8,2.57,0.29,0.55,0,*71
1500127391.3,13015,18.38,73802.0,2.57,0.33,0.55,0,*7B
1500127392.48,13016,18.38,73800.8,2.57,0.43,0.79,0,*71
1500127393.69,13017,18.38,73802.8,2.57,0.33,0.63,0,*7C
1500127394.87,13018,18.38,73802.3,2.57,0.01,0.33,0,*47
1500127396.08,13019,18.38,73802.3,2.57,0.25,0.51,0,*74
1500127397.3,13020,18.38,73804.8,2.57,0.29,0.55,0,*76
1500127398.5,13021,18.38,73800.3,2.53,-0.15,0.13,0,*53
1500127399.69,13022,18.38,73802.0,2.57,0.05,0.29,0,*41
1500127400.87,13023,18.38,73800.3,2.57,0.05,0.33,0,*4B
1500127402.07,13024,18.38,73806.0,2.57,-0.11,0.13,0,*56
1500127403.25,13025,18.38,73800.0,2.57,-0.69,-0.45,0,*76
1500127404.45,13026,18.38,73806.0,2.57,-0.23,0.05,0,*62
1500127405.63,13027,18.38,73800.0,2.53,0.01,0.29,0,*44
1500127406.82,13028,18.38,73802.5,2.53,-0.27,0.01,0,*68
1500127408.03,13029,18.38,73804.0,2.53,-0.11,0.21,0,*5E
1500127409.23,13030,18.38,73798.8,2.53,-0.03,0.29,0,*6D
1500127410.4,13031,18.38,73798.5,2.57,-0.33,0.05,0,*65
1500127411.61,13032,18.38,73802.0,2.53,0.13,0.29,0,*73
1500127412.82,13033,18.38,73802.0,2.53,0.37,0.75,0,*7D
1500127414.04,13034,18.38,73800.5,2.57,0.55,0.87,0,*77
1500127415.23,13035,18.38,73802.8,2.57,0.75,1.01,0,*4B
1500127416.46,13036,18.38,73800.0,2.57,0.55,0.91,0,*72
1500127417.66,13037,18.38,73796.0,2.57,0.41,0.67,0,*7F
1500127418.87,13038,18.38,73802.3,2.57,0.25,0.41,0,*76
1500127420.08,13039,18.38,73798.3,2.57,0.33,0.63,0,*70
1500127421.3,13040,18.38,73804.5,2.57,0.55,0.87,0,*74
1500127422.49,13041,18.38,73802.8,2.57,-0.07,0.17,0,*66
1500127423.71,13042,18.38,73802.0,2.59,-0.07,0.29,0,*66
1500127424.94,13043,18.38,73800.3,2.59,0.33,0.67,0,*77
1500127426.15,13044,18.38,73798.8,2.59,0.43,0.87,0,*79
1500127427.36,13045,18.38,73798.8,2.59,0.43,0.87,0,*78
1500127428.57,13046,18.38,73798.5,2.61,0.47,0.79,0,*75
1500127429.78,13047,18.38,73802.3,2.59,0.43,0.87,0,*7A
1500127430.96,13048,18.38,73804.0,2.61,0.43,0.67,0,*70
1500127432.15,13049,18.38,73800.5,2.61,0.21,0.43,0,*73
1500127433.36,13050,18.38,73802.5,2.59,0.01,0.29,0,*4E
1500127434.6,13051,18.38,73802.5,2.59,0.25,0.55,0,*72
1500127435.84,13052,18.38,73800.0,2.59,0.29,0.55,0,*7D
1500127437.08,13053,18.38,73800.3,2.59,0.33,0.63,0,*72
1500127438.26,13054,18.38,73800.3,2.61,0.43,0.79,0,*72
1500127439.47,13055,18.38,73796.5,2.61,0.47,0.71,0,*7F
1500127440.67,13056,18.38,73800.8,2.59,-0.29,-0.07,0,*4E
1500127441.87,13057,18.38,73802.5,2.59,-0.29,-0.07,0,*4F
1500127443.09,13058,18.38,73804.8,2.59,-0.11,0.17,0,*57
1500127444.32,13059,18.38,73804.3,2.59,-0.85,-0.61,0,*77
1500127445.53,13060,18.38,73804.0,2.59,-0.41,-0.11,0,*72
1500127446.7,13061,18.38,73798.0,2.57,-0.33,-0.07,0,*4F
1500127447.89,13062,18.38,73800.0,2.57,0.05,0.33,0,*4E
1500127449.06,13063,18.38,73802.0,2.57,-0.19,0.05,0,*6A
1500127450.27,13064,18.38,73804.0,2.53,-0.89,-0.65,0,*7B
1500127451.5,13065,18.38,73804.0,2.53,-0.97,-0.85,0,*7B
1500127452.7,13066,18.38,73802.3,2.53,-0.85,-0.65,0,*75
1500127453.91,13067,18.38,73804.5,2.53,-1.51,-1.47,0,*7D
1500127455.13,13068,18.38,73802.8,2.49,-1.55,-1.39,0,*74
1500127456.37,13069,18.38,73800.5,2.49,-1.13,-1.01,0,*7C
1500127457.55,13070,18.38,73802.0,2.49,-0.37,-0.03,0,*40
1500127458.74,13071,18.38,73802.0,2.49,0.09,0.37,0,*4B
1500127459.97,13072,18.38,73798.8,2.47,0.13,0.41,0,*7C
1500127461.18,13073,18.38,73804.3,2.47,0.01,0.17,0,*4D
1500127462.39,13074,18.38,73800.8,2.47,-0.45,-0.11,0,*7C
1500127463.59,13075,18.38,73800.8,2.47,-0.45,-0.07,0,*4A
1500127464.79,13076,18.38,73802.8,2.47,-0.33,-0.07,0,*48
1500127466.0,13077,18.38,73802.5,2.47,-0.41,-0.19,0,*73
1500127467.22,13078,18.38,73800.8,2.47,-0.19,0.17,0,*52
1500127468.48,13079,18.38,73806.3,2.47,-1.05,-0.93,0,*4E
1500127469.74,13080,18.38,73804.0,2.47,-1.05,-0.85,0,*4F
1500127470.93,13081,18.38,73800.3,2.45,-1.67,-1.55,0,*74
1500127472.17,13082,18.38,73804.0,2.45,-1.91,-1.83,0,*75
1500127473.39,13083,18.38,73802.8,2.43,-2.35,-2.23,0,*76
1500127474.63,13084,18.38,73802.8,2.37,-2.03,-1.91,0,*7D
1500127475.84,13085,18.38,73802.3,2.39,-0.65,-0.49,0,*74
1500127477.03,13086,18.38,73800.8,2.37,-0.65,-0.45,0,*75
1500127478.24,13087,18.38,73800.8,2.37,-0.85,-0.57,0,*79
1500127479.46,13088,18.38,73800.8,2.37,-1.17,-1.09,0,*76
1500127480.66,13089,18.38,73802.3,2.37,-1.29,-1.17,0,*75
1500127481.87,13090,18.38,73798.3,2.35,-1.17,-0.97,0,*4B
1500127483.11,13091,18.38,73802.3,2.33,-1.01,-0.73,0,*41
1500127484.35,13092,18.38,73800.8,2.33,-0.97,-0.73,0,*7C
1500127485.57,13093,18.38,73800.5,2.35,-1.17,-1.05,0,*72
1500127486.75,13094,18.38,73802.8,2.35,-1.51,-1.29,0,*79
1500127487.99,13095,18.38,73802.0,2.33,-1.59,-1.43,0,*7A
1500127489.21,13096,18.38,73800.0,2.27,-1.63,-1.47,0,*71
1500127490.46,13097,18.38,73800.0,2.27,-1.39,-1.35,0,*7A
1500127491.72,13098,18.38,73802.8,2.25,-1.87,-1.91,0,*7C
1500127492.96,13099,18.38,73800.0,2.25,-1.91,-1.75,0,*70
1500127494.18,13100,18.38,73800.3,2.23,-1.63,-1.43,0,*7F
1500127495.36,13101,18.38,73806.0,2.23,-2.27,-2.15,0,*7D
1500127496.61,13102,18.38,73806.0,2.21,-2.47,-2.39,0,*74
1500127497.8,13103,18.38,73804.5,2.19,-2.43,-2.31,0,*72
1500127499.04,13104,18.38,73802.5,2.17,-1.91,-1.75,0,*74
1500127500.26,13105,18.38,73802.0,2.17,-1.29,-1.17,0,*72
1500127501.48,13106,18.38,73800.8,2.15,-1.47,-1.29,0,*76
1500127502.66,13107,18.38,73800.5,2.15,-0.65,-0.37,0,*78
1500127503.84,13108,18.38,73800.3,2.15,-0.29,-0.15,0,*7F
1500127505.06,13109,18.38,73806.3,2.17,-0.41,-0.15,0,*72
1500127506.25,13110,18.38,73800.3,2.15,-0.37,-0.11,0,*7D
1500127507.47,13111,18.38,73802.3,2.17,-0.27,-0.03,0,*4C
1500127508.67,13112,18.38,73804.8,2.17,-0.29,-0.03,0,*41
1500127509.87,13113,18.38,73802.5,2.17,-0.29,-0.03,0,*40
1500127511.08,13114,18.38,73800.8,2.17,-0.11,0.09,0,*6B
1500127512.26,13115,18.38,73806.3,2.19,-0.37,-0.11,0,*74
1500127513.48,13116,18.38,73806.8,2.19,-1.13,-1.21,0,*72
1500127514.66,13117,18.38,73800.8,2.19,-1.59,-1.55,0,*7E
1500127515.91,13118,18.38,73804.3,2.19,-1.47,-1.35,0,*78
1500127517.15,13119,18.38,73802.3,2.15,-1.47,-1.35,0,*75
1500127518.35,13120,18.38,73804.3,2.15,-0.85,-0.61,0,*70
1500127519.54,13121,18.38,73804.5,2.15,-0.65,-0.37,0,*7C
1500127520.71,13122,18.38,73806.5,2.15,-0.73,-0.61,0,*7B
1500127521.95,13123,18.38,73804.5,2.15,-1.05,-0.89,0,*4C
1500127523.17,13124,18.38,73808.3,2.15,-1.17,-1.05,0,*7D
1500127524.39,13125,18.38,73806.5,2.11,-1.91,-1.75,0,*71
1500127525.6,13126,18.38,73804.0,2.13,-1.63,-1.55,0,*7F
1500127526.82,13127,18.38,73806.5,2.11,-1.83,-1.79,0,*7C
1500127528.01,13128,18.38,73806.3,2.07,-1.67,-1.55,0,*70
1500127529.25,13129,18.38,73804.0,2.05,-1.01,-0.73,0,*46
1500127530.45,13130,18.38,73802.0,2.07,-0.45,-0.23,0,*78
1500127531.62,13131,18.38,73804.0,2.07,-0.61,-0.37,0,*7A
1500127532.83,13132,18.38,73806.5,2.07,-0.85,-0.69,0,*78
1500127534.03,13133,18.38,73806.0,2.07,-0.93,-0.69,0,*7E
1500127535.21,13134,18.38,73810.3,2.07,-0.73,-0.49,0,*75
1500127536.41,13135,18.38,73810.0,2.07,-0.61,-0.27,0,*7F
1500127537.67,13136,18.38,73804.3,2.05,-1.01,-0.85,0,*41
1500127538.92,13137,18.38,73804.5,2.05,-1.01,-0.85,0,*40
1500127540.18,13138,18.38,73806.0,2.05,-1.09,-0.85,0,*47
1500127541.39,13139,18.38,73806.5,2.05,-0.61,-0.37,0,*70
1500127542.61,13140,18.38,73806.0,2.05,-0.27,-0.07,0,*4F
1500127543.83,13141,18.38,73800.8,2.05,-0.37,-0.15,0,*7C
1500127545.0,13142,18.38,73800.0,2.07,-0.33,-0.19,0,*75
1500127546.19,13143,18.38,73804.0,2.07,-0.07,0.17,0,*60
1500127547.38,13144,18.38,73802.8,2.07,0.05,0.37,0,*4A
1500127548.58,13145,18.38,73806.5,2.07,0.13,0.41,0,*7D
1500127549.79,13146,18.38,73800.8,2.07,0.13,0.41,0,*7E
1500127551.03,13147,18.38,73806.8,2.13,0.29,0.59,0,*7A
1500127552.25,13148,18.38,73804.5,2.11,0.29,0.55,0,*7B
1500127553.47,13149,18.38,73806.8,2.11,0.29,0.51,0,*7E
1500127554.72,13150,18.38,73806.8,2.13,0.21,0.51,0,*7C
1500127555.93,13151,18.38,73804.5,2.13,0.17,0.43,0,*7B
1500127557.15,13152,18.38,73802.3,2.15,0.37,0.55,0,*7B
1500127558.32,13153,18.38,73808.5,2.15,-0.19,0.01,0,*6A
1500127559.55,13154,18.38,73808.3,2.15,-1.13,-0.89,0,*4B
1500127560.8,13155,18.38,73804.0,2.13,-1.39,-1.29,0,*7F
1500127562.04,13156,18.38,73808.5,2.13,-1.83,-1.79,0,*78
1500127563.28,13157,18.38,73806.0,2.11,-1.91,-1.83,0,*7D
1500127564.53,13158,18.38,73802.8,2.05,-1.83,-1.71,0,*79
1500127565.77,13159,18.38,73806.8,2.05,-1.25,-1.13,0,*70
1500127567.04,13160,18.38,73806.8,2.05,-1.87,-1.83,0,*7B
1500127568.25,13161,18.38,73806.8,2.01,-3.27,-3.19,0,*77
1500127569.45,13162,18.38,73800.8,1.99,-3.27,-3.27,0,*7B
1500127570.71,13163,18.38,73800.3,1.97,-2.59,-2.55,0,*78
1500127571.9,13164,18.38,73806.0,1.95,-1.71,-1.59,0,*7B
1500127573.16,13165,18.38,73802.8,1.93,-1.13,-1.01,0,*75
1500127574.39,13166,18.38,73802.8,1.93,-0.85,-0.61,0,*7F
1500127575.6,13167,18.38,73804.0,1.95,-0.53,-0.27,0,*71
1500127576.79,13168,18.38,73802.0,1.95,-0.27,0.01,0,*64
1500127578.02,13169,18.38,73806.0,1.93,-0.23,-0.03,0,*48
1500127579.21,13170,18.38,73806.3,1.95,-0.23,0.01,0,*69
1500127580.4,13171,18.38,73804.5,1.95,-0.53,-0.33,0,*73
1500127581.6,13172,18.38,73806.3,1.95,-0.97,-0.65,0,*7B
1500127582.8,13173,18.38,73804.0,1.95,-0.85,-0.65,0,*79
1500127584.01,13174,18.38,73802.0,1.95,-0.89,-0.73,0,*75
1500127585.24,13175,18.38,73802.5,1.97,-0.93,-0.81,0,*70
1500127586.47,13176,18.38,73804.3,1.97,-1.17,-0.97,0,*49
1500127587.71,13177,18.38,73800.8,1.93,-1.29,-1.09,0,*77
1500127588.97,13178,18.38,73806.0,1.93,-1.01,-0.89,0,*4B
1500127590.24,13179,18.38,73800.8,1.93,-1.47,-1.39,0,*72
1500127591.46,13180,18.38,73804.3,1.93,-1.71,-1.63,0,*7E
1500127592.67,13181,18.38,73802.0,1.89,-2.39,-2.31,0,*7F
1500127593.89,13182,18.38,73802.5,1.89,-2.79,-2.83,0,*71
1500127595.08,13183,18.38,73798.5,1.83,-2.95,-2.87,0,*7C
1500127596.27,13184,18.38,73800.3,1.83,-2.35,-2.23,0,*7F
1500127597.51,13185,18.38,73798.5,1.83,-2.59,-2.55,0,*75
1500127598.73,13186,18.38,73798.5,1.79,-2.87,-2.75,0,*72
1500127599.92,13187,18.38,73802.5,1.75,-3.23,-3.11,0,*73
1500127601.11,13188,18.38,73800.8,1.75,-3.07,-3.07,0,*7D
1500127602.38,13189,18.38,73796.8,1.71,-2.63,-2.51,0,*79
1500127603.6,13190,18.38,73802.3,1.71,-1.71,-1.63,0,*73
1500127604.84,13191,18.38,73802.3,1.73,-1.17,-0.85,0,*49
1500127606.07,13192,18.38,73798.5,1.71,-0.85,-0.73,0,*7B
1500127607.32,13193,18.38,73798.0,1.73,-1.09,-0.85,0,*44
1500127608.56,13194,18.38,73798.8,1.71,-1.21,-0.97,0,*48
1500127609.79,13195,18.38,73800.3,1.71,-0.85,-0.57,0,*7A
1500127610.99,13196,18.38,73800.5,1.71,-0.61,-0.45,0,*70
1500127612.21,13197,18.38,73800.5,1.73,-0.45,-0.23,0,*75
1500127613.42,13198,18.38,73800.3,1.73,-0.29,-0.11,0,*71
1500127614.63,13199,18.38,73800.5,1.75,-0.41,-0.27,0,*7D
1500127615.86,13200,18.38,73802.8,1.73,-0.45,-0.23,0,*78
1500127617.09,13201,18.38,73796.5,1.73,-0.41,-0.23,0,*7D
1500127618.29,13202,18.38,73798.5,1.75,-0.23,-0.07,0,*4A
1500127619.5,13203,18.38,73800.3,1.75,-0.23,-0.07,0,*4B
1500127620.7,13204,18.38,73796.5,1.75,-0.23,0.05,0,*63
1500127621.9,13205,18.38,73800.3,1.77,-0.29,-0.07,0,*45
1500127623.11,13206,18.38,73796.5,1.77,-0.29,-0.15,0,*75
1500127624.32,13207,18.38,73798.8,1.77,-0.15,-0.03,0,*4C
1500127625.54,13208,18.38,73798.0,1.77,-0.03,0.21,0,*69
1500127626.76,13209,18.38,73800.0,1.77,0.09,0.33,0,*4C
1500127627.97,13210,18.38,73798.8,1.81,0.01,0.21,0,*46
1500127629.17,13211,18.38,73798.8,1.81,0.01,0.25,0,*43
1500127630.4,13212,18.38,73802.3,1.81,-0.03,0.21,0,*6B
1500127631.59,13213,18.38,73798.3,1.81,-0.15,0.09,0,*67
1500127632.78,13214,18.38,73798.8,1.81,-0.15,0.01,0,*68
1500127633.97,13215,18.38,73798.8,1.83,0.05,0.17,0,*40
1500127635.16,13216,18.38,73794.3,1.83,0.05,0.29,0,*4E
1500127636.39,13217,18.38,73800.0,1.85,0.25,0.41,0,*75
1500127637.63,13218,18.38,73796.0,1.85,0.17,0.33,0,*7E
1500127638.81,13219,18.38,73798.3,1.83,-0.33,-0.11,0,*7F
1500127640.01,13220,18.38,73800.0,1.83,-0.23,-0.07,0,*43
1500127641.18,13221,18.38,73802.3,1.83,-0.19,0.01,0,*60
1500127642.4,13222,18.38,73798.8,1.85,-0.23,0.01,0,*6C
1500127643.61,13223,18.38,73796.5,1.85,-0.07,0.17,0,*6C
1500127644.83,13224,18.38,73802.3,1.85,-0.11,0.13,0,*58
1500127646.06,13225,18.38,73796.5,1.85,-0.11,0.13,0,*59
1500127647.25,13226,18.38,73800.8,1.83,-0.07,0.17,0,*6F
1500127648.47,13227,18.38,73798.8,1.85,-0.11,0.17,0,*5F
1500127649.7,13228,18.38,73802.3,1.85,0.13,0.17,0,*7F
1500127650.93,13229,18.38,73798.8,1.85,0.25,0.41,0,*78
1500127652.17,13230,18.38,73802.8,1.89,0.37,0.55,0,*7A
1500127653.36,13231,18.38,73798.8,1.91,0.43,0.55,0,*71
1500127654.58,13232,18.38,73800.5,1.91,0.47,0.71,0,*70
1500127655.8,13233,18.38,73800.5,1.91,0.55,0.71,0,*72
1500127657.03,13234,18.38,73800.3,1.91,0.47,0.59,0,*7C
1500127658.24,13235,18.38,73800.8,1.91,0.37,0.55,0,*76
1500127659.49,13236,18.38,73800.8,1.93,0.41,0.59,0,*7A
1500127660.72,13237,18.38,73798.8,1.93,0.25,0.41,0,*70
1500127661.94,13238,18.38,73800.3,1.93,0.09,0.25,0,*43
1500127663.13,13239,18.38,73802.5,1.93,-0.03,0.09,0,*5B
1500127664.34,13240,18.38,73800.0,1.93,0.01,0.25,0,*44
1500127665.57,13241,18.38,73800.0,1.93,-0.11,0.13,0,*5C
1500127666.8,13242,18.38,73800.3,1.93,0.13,0.33,0,*72
1500127668.0,13243,18.38,73800.3,1.91,-0.03,0.29,0,*66
1500127669.24,13244,18.38,73800.5,1.93,0.13,0.37,0,*70
1500127670.48,13245,18.38,73804.0,1.93,0.13,0.37,0,*71
1500127671.66,13246,18.38,73802.5,1.95,0.01,0.25,0,*44
1500127672.87,13247,18.38,73796.8,1.93,-0.03,0.13,0,*69
1500127674.05,13248,18.38,73804.3,1.95,0.01,0.33,0,*4D
1500127675.29,13249,18.38,73802.8,1.93,0.13,0.37,0,*7D
1500127676.5,13250,18.38,73802.5,1.93,0.01,0.33,0,*42
1500127677.69,13251,18.38,73802.0,1.95,0.09,0.25,0,*4A
1500127678.89,13252,18.38,73800.3,1.93,0.01,0.25,0,*47
1500127680.13,13253,18.38,73800.8,1.93,-0.23,-0.11,0,*71
1500127681.34,13254,18.38,73802.5,1.95,0.13,0.37,0,*77
1500127682.55,13255,18.38,73798.5,1.95,0.13,0.33,0,*72
1500127683.79,13256,18.38,73796.5,1.93,0.33,0.47,0,*76
1500127684.97,13257,18.38,73798.5,1.95,0.01,0.25,0,*44
1500127686.18,13258,18.38,73802.3,1.95,0.13,0.41,0,*7A
1500127687.39,13259,18.38,73800.3,1.95,0.21,0.41,0,*7A
1500127688.61,13260,18.38,73800.0,1.95,0.33,0.47,0,*75
1500127689.82,13261,18.38,73800.0,1.95,0.47,0.71,0,*72
1500127691.06,13262,18.38,73798.8,1.97,0.55,0.79,0,*78
1500127692.3,13263,18.38,73802.3,1.97,0.51,0.67,0,*72
1500127693.52,13264,18.38,73802.0,1.99,0.41,0.59,0,*77
1500127694.71,13265,18.38,73798.3,1.99,-0.03,0.17,0,*67
1500127695.88,13266,18.38,73802.5,1.99,-0.15,-0.03,0,*4B
1500127697.09,13267,18.38,73800.0,1.97,0.05,0.29,0,*4D
1500127698.33,13268,18.38,73798.5,1.97,0.41,0.63,0,*7C
1500127699.57,13269,18.38,73800.8,1.97,0.51,0.75,0,*7B
1500127700.79,13270,18.38,73804.0,1.99,0.55,0.71,0,*7D
1500127702.0,13271,18.38,73800.8,1.99,0.33,0.47,0,*79
1500127703.22,13272,18.38,73798.3,1.99,0.33,0.55,0,*79
1500127704.43,13273,18.38,73798.5,1.99,0.47,0.79,0,*75
1500127705.65,13274,18.38,73798.3,1.99,0.55,0.83,0,*74
1500127706.87,13275,18.38,73796.5,1.99,0.55,0.83,0,*75
1500127708.09,13276,18.38,73794.3,1.99,0.41,0.59,0,*74
1500127709.33,13277,18.38,73802.5,2.01,0.29,0.55,0,*75
1500127710.57,13278,18.38,73800.5,2.01,0.41,0.55,0,*74
1500127711.79,13279,18.38,73796.0,2.03,0.47,0.71,0,*77
1500127713.04,13280,18.38,73800.8,2.01,0.55,0.71,0,*70
1500127714.26,13281,18.38,73798.0,2.03,0.33,0.47,0,*76
1500127715.47,13282,18.38,73796.3,2.03,0.33,0.59,0,*7A
1500127716.69,13283,18.38,73798.3,2.03,0.47,0.63,0,*71
1500127717.91,13284,18.38,73796.0,2.03,0.37,0.51,0,*70